UAL23 KEWR-EIDW

Flight info

Callsign UAL23
Flight time N/A
Altitude 35000
Route MERIT DCT HFD DCT PUT DCT BOS DCT TUSKY N429A ELSIR/M082F350 DCT 50N050W 51N040W 53N030W 54N020W DCT DOGAL/N0473F350 DCT BEXET DCT OLAPO OLAPO3R
Aircraft B772/H-SDE2E3FGHIJ5LORVWXY/LB1D1

Departure

Time 2026-04-21 08:34
Airport Newark Liberty International Airport (KEWR)

Arrival

Time N/A
Airport Dublin Airport (EIDW)
Time Latitude Longitude Altitude Speed Heading
2026-04-21 08:11 40.69906 -74.18054 26 ft 0 kts 138°
2026-04-21 08:18 40.69908 -74.18057 25 ft 3 kts 137°
2026-04-21 08:19 40.69920 -74.18072 26 ft 3 kts 131°
2026-04-21 08:19 40.69934 -74.18096 26 ft 3 kts 120°
2026-04-21 08:19 40.69944 -74.18124 26 ft 3 kts 99°
2026-04-21 08:19 40.69943 -74.18151 26 ft 3 kts 57°
2026-04-21 08:20 40.69933 -74.18164 26 ft 0 kts 10°
2026-04-21 08:20 40.69951 -74.18159 26 ft 0 kts 10°
2026-04-21 08:25 40.69960 -74.18157 26 ft 6 kts 10°
2026-04-21 08:26 40.69997 -74.18134 26 ft 6 kts 41°
2026-04-21 08:26 40.70007 -74.18083 26 ft 6 kts 95°
2026-04-21 08:26 40.70002 -74.18029 26 ft 6 kts 96°
2026-04-21 08:26 40.69997 -74.17952 26 ft 11 kts 95°
2026-04-21 08:27 40.69991 -74.17854 26 ft 11 kts 95°
2026-04-21 08:27 40.69984 -74.17756 26 ft 11 kts 95°
2026-04-21 08:27 40.69978 -74.17658 26 ft 11 kts 95°
2026-04-21 08:27 40.69972 -74.17561 26 ft 11 kts 95°
2026-04-21 08:28 40.69965 -74.17465 26 ft 11 kts 98°
2026-04-21 08:28 40.69942 -74.17371 25 ft 11 kts 113°
2026-04-21 08:28 40.69902 -74.17288 26 ft 11 kts 128°
2026-04-21 08:28 40.69855 -74.17215 26 ft 11 kts 134°
2026-04-21 08:29 40.69800 -74.17149 26 ft 11 kts 140°
2026-04-21 08:29 40.69740 -74.17090 26 ft 12 kts 147°
2026-04-21 08:29 40.69639 -74.17021 26 ft 21 kts 158°
2026-04-21 08:29 40.69472 -74.16975 26 ft 27 kts 175°
2026-04-21 08:30 40.69289 -74.16999 31 ft 27 kts 197°
2026-04-21 08:30 40.69119 -74.17100 30 ft 27 kts 206°
2026-04-21 08:30 40.68951 -74.17208 26 ft 27 kts 206°
2026-04-21 08:30 40.68782 -74.17316 27 ft 27 kts 206°
2026-04-21 08:31 40.68613 -74.17421 28 ft 27 kts 205°
2026-04-21 08:31 40.68449 -74.17525 27 ft 27 kts 206°
2026-04-21 08:31 40.68280 -74.17635 31 ft 27 kts 206°
2026-04-21 08:31 40.68111 -74.17742 26 ft 27 kts 206°
2026-04-21 08:32 40.67942 -74.17850 27 ft 27 kts 206°
2026-04-21 08:32 40.67791 -74.17946 25 ft 22 kts 205°
2026-04-21 08:32 40.67663 -74.18028 27 ft 13 kts 206°
2026-04-21 08:32 40.67583 -74.18009 27 ft 13 kts 128°
2026-04-21 08:33 40.67583 -74.17916 27 ft 11 kts 34°
2026-04-21 08:33 40.67621 -74.17893 26 ft 6 kts 25°
2026-04-21 08:33 40.67798 -74.17781 30 ft 61 kts 25°
2026-04-21 08:33 40.68397 -74.17403 28 ft 127 kts 25°
2026-04-21 08:34 40.69340 -74.16803 169 ft 164 kts 24°
2026-04-21 08:34 40.70406 -74.16097 632 ft 183 kts 25°
2026-04-21 08:34 40.71576 -74.15178 1019 ft 203 kts 38°
2026-04-21 08:34 40.72606 -74.13848 1579 ft 211 kts 43°
2026-04-21 08:35 40.73695 -74.12486 2061 ft 220 kts 40°
2026-04-21 08:35 40.74834 -74.11110 2568 ft 223 kts 40°
2026-04-21 08:35 40.76134 -74.10057 3040 ft 220 kts 12°
2026-04-21 08:35 40.77628 -74.10169 3610 ft 219 kts 342°
2026-04-21 08:36 40.79103 -74.10717 3987 ft 224 kts 352°
2026-04-21 08:36 40.80675 -74.10887 4509 ft 227 kts 357°
2026-04-21 08:36 40.82266 -74.10863 4823 ft 239 kts
2026-04-21 08:36 40.83941 -74.10478 5238 ft 247 kts 11°
2026-04-21 08:37 40.85606 -74.09769 5690 ft 255 kts 26°
2026-04-21 08:37 40.87048 -74.08417 6285 ft 259 kts 43°
2026-04-21 08:37 40.88168 -74.06524 6840 ft 265 kts 58°
2026-04-21 08:37 40.88956 -74.04306 7296 ft 268 kts 64°
2026-04-21 08:38 40.89771 -74.02050 7738 ft 274 kts 62°
2026-04-21 08:38 40.90331 -74.00552 8127 ft 275 kts 61°
2026-04-21 08:38 40.91217 -73.98200 8676 ft 278 kts 62°
2026-04-21 08:38 40.92092 -73.95938 9125 ft 279 kts 56°
2026-04-21 08:39 40.93284 -73.93887 9492 ft 284 kts 46°
2026-04-21 08:39 40.94607 -73.91962 10073 ft 285 kts 45°
2026-04-21 08:39 40.95950 -73.89979 10341 ft 297 kts 46°
2026-04-21 08:39 40.97331 -73.87837 10480 ft 314 kts 47°
2026-04-21 08:40 40.98746 -73.85532 10610 ft 331 kts 49°
2026-04-21 08:40 41.00203 -73.83065 10817 ft 347 kts 50°
2026-04-21 08:40 41.01683 -73.80487 11251 ft 357 kts 50°
2026-04-21 08:40 41.03191 -73.77815 11859 ft 364 kts 51°
2026-04-21 08:41 41.04686 -73.75132 12567 ft 367 kts 51°
2026-04-21 08:41 41.06208 -73.72387 13332 ft 371 kts 50°
2026-04-21 08:41 41.07735 -73.69618 14111 ft 373 kts 50°
2026-04-21 08:41 41.09271 -73.66822 14856 ft 376 kts 50°
2026-04-21 08:42 41.10819 -73.63994 15607 ft 379 kts 50°
2026-04-21 08:42 41.12371 -73.61163 16285 ft 381 kts 50°
2026-04-21 08:42 41.13921 -73.58338 16919 ft 384 kts 49°
2026-04-21 08:42 41.15506 -73.55447 17547 ft 388 kts 49°
2026-04-21 08:43 41.17101 -73.52533 18166 ft 390 kts 49°
2026-04-21 08:43 41.18165 -73.50589 18570 ft 392 kts 49°
2026-04-21 08:43 41.19824 -73.47552 19175 ft 393 kts 49°
2026-04-21 08:43 41.21440 -73.44589 19722 ft 397 kts 49°
2026-04-21 08:44 41.23063 -73.41611 20282 ft 398 kts 48°
2026-04-21 08:44 41.24694 -73.38618 20839 ft 400 kts 48°
2026-04-21 08:44 41.26314 -73.35637 21345 ft 403 kts 48°
2026-04-21 08:44 41.27965 -73.32602 21840 ft 405 kts 48°
2026-04-21 08:45 41.29621 -73.29551 22340 ft 407 kts 47°
2026-04-21 08:45 41.31290 -73.26476 22781 ft 410 kts 47°
2026-04-21 08:45 41.32947 -73.23420 23248 ft 412 kts 47°
2026-04-21 08:45 41.34625 -73.20316 23703 ft 414 kts 47°